Location: Gwatt
(46.7204°N, 7.6223°E)
Time: 11:56:00
(UTC+00:00)

Transit 2A - Pass Details

Date: 11 May 2021
Orbit: 601 x 958 km, 66.7° (Epoch: 15 June)

Event Time Altitude Azimuth Distance (km) Brightness Sun altitude
Exits shadow 02:47:05 13° 255° (WSW) 1,828 7.4 -11.1°
Maximum altitude 02:50:32 30° 314° (NW) 1,095 6.8 -10.7°
Drops below altitude 10° 02:54:24 10° 17° (NNE) 1,953 9.1 -10.2°
Sets 02:56:52 0° 28° (NNE) 2,862 10.4 -9.8°
